Tracking 30743 objects as of 20-Jun-2025
HD Live streaming from Space Station
objects crossing your sky now

STARLINK-3975

Track STARLINK-3975 now!
10-day predictions
STARLINK-3975 is classified as:


NORAD ID: 52620
Int'l Code: 2022-052Y
Perigee: 545.9 km
Apogee: 547.9 km
Inclination: 53.2 °
Period: 95.4 minutes
Semi major axis: 6917 km
RCS: Unknown
Launch date: May 14, 2022
Source: United States (US)
Launch site: AIR FORCE EASTERN TEST RANGE (AFETR)
Your satellite tracking list
Your tracking list is empty




NASA's NSSDC Master Catalog

Two Line Element Set (TLE):
1 52620U 22052Y   25171.03002516  .00000071  00000-0  22578-4 0  9995
2 52620  53.2180  23.2453 0001495  90.5040 269.6123 15.08839025171506
Source of the keplerian elements: AFSPC